Weather History for Rome, GA

Change the Weather History Date:

Friday, April 25, 2014

  Actual Average Record
Temperature  
Mean Temperature 68 °F 62 °F  
Max Temperature 79 °F 75 °F 88 °F (2006)
Min Temperature 56 °F 49 °F 33 °F (2005)
Degree Days  
Heating Degree Days 0 4  
Month to date heating degree days 143 169  
Since 1 July heating degree days 3418 3196  
Cooling Degree Days 3 1  
Month to date cooling degree days 8 21  
Year to date cooling degree days 8 25  
Growing Degree Days 20 (Base 50)    
Moisture  
Dew Point 56 °F    
Average Humidity 62    
Maximum Humidity 84    
Minimum Humidity 40    
Precipitation  
Precipitation T in 0.16 in 1.21 in (2003)
Month to date precipitation 4.72 3.25  
Year to date precipitation 17.08 17.89  
Sea Level Pressure  
Sea Level Pressure 29.86 in    
Wind  
Wind Speed 7 mph (West)    
Max Wind Speed 21 mph    
Max Gust Speed 28 mph    
Visibility 10 miles    
Events      
T = Trace of Precipitation, MM = Missing Value Source: NWS Daily Summary

Daily Weather History Graph

Daily Weather History Graph

Search for Another Location

Airport:

Trip Planner

Search our weather history database for the weather conditions in past years. The results will help you decide how hot, cold, wet, or windy it might be!

Date:

Astronomy

Apr. 25, 2014 Rise Set
Actual Time 6:57 AM EDT 8:20 PM EDT
Civil Twilight 6:31 AM EDT 8:46 PM EDT
Nautical Twilight 5:59 AM EDT 9:18 PM EDT
Astronomical Twilight 5:26 AM EDT 9:51 PM EDT
Moon 4:34 AM EDT (4/25) 4:51 PM EDT (4/25)
Length of Visible Light 14h 15m
Length of Day
13h 22m
Waning Crescent, 15% of the Moon is Illuminated
Apr 25
Waning Crescent
Apr 29
New
May 6
First Quarter
May 14
Full
May 21
Last Quarter

Hourly Weather History & Observations

Time (EDT) Temp. Dew Point Humidity Pressure Visibility Wind Dir Wind Speed Gust Speed Precip Events Conditions
12:53 AM 63.0 °F 55.0 °F 75% 29.86 in 10.0 mi Calm Calm - N/A   Overcast
1:53 AM 64.9 °F 54.0 °F 68% 29.85 in 10.0 mi South 3.5 mph - N/A   Mostly Cloudy
2:53 AM 66.9 °F 55.9 °F 68% 29.78 in 10.0 mi West 3.5 mph - 0.00 in   Mostly Cloudy
3:53 AM 68.0 °F 57.0 °F 68% 29.76 in 10.0 mi South 8.1 mph - N/A   Clear
4:53 AM 66.0 °F 57.9 °F 75% 29.78 in 10.0 mi Calm Calm - N/A   Mostly Cloudy
5:53 AM 63.0 °F 57.9 °F 84% 29.79 in 10.0 mi South 3.5 mph - 0.00 in   Scattered Clouds
6:53 AM 64.9 °F 57.0 °F 75% 29.79 in 10.0 mi SSW 5.8 mph - N/A   Partly Cloudy
7:53 AM 64.9 °F 59.0 °F 81% 29.82 in 10.0 mi SSW 6.9 mph - N/A   Mostly Cloudy
8:53 AM 66.9 °F 61.0 °F 81% 29.83 in 7.0 mi SW 6.9 mph - N/A   Mostly Cloudy
9:53 AM 70.0 °F 61.0 °F 73% 29.83 in 10.0 mi WSW 11.5 mph 20.7 mph N/A   Mostly Cloudy
10:01 AM 70.0 °F 60.1 °F 71% 29.86 in 10.0 mi WSW 10.4 mph 19.6 mph N/A   Mostly Cloudy
10:53 AM 72.0 °F 57.9 °F 61% 29.85 in 10.0 mi WSW 10.4 mph 19.6 mph N/A   Scattered Clouds
11:53 AM 73.0 °F 54.0 °F 51% 29.88 in 10.0 mi West 12.7 mph 24.2 mph N/A   Partly Cloudy
12:53 PM 71.1 °F 54.0 °F 55% 29.90 in 10.0 mi West 13.8 mph 25.3 mph N/A   Overcast
1:53 PM 75.0 °F 55.0 °F 50% 29.89 in 10.0 mi WNW 11.5 mph 18.4 mph N/A   Scattered Clouds
2:53 PM 75.0 °F 55.0 °F 50% 29.89 in 10.0 mi West 12.7 mph 23.0 mph N/A   Scattered Clouds
3:53 PM 75.9 °F 54.0 °F 46% 29.88 in 10.0 mi WNW 10.4 mph 20.7 mph N/A   Partly Cloudy
4:53 PM 78.1 °F 54.0 °F 43% 29.86 in 10.0 mi NW 9.2 mph - N/A   Partly Cloudy
5:53 PM 78.1 °F 53.1 °F 42% 29.86 in 10.0 mi Variable 5.8 mph - N/A   Partly Cloudy
6:53 PM 77.0 °F 52.0 °F 42% 29.86 in 10.0 mi NW 8.1 mph - N/A   Partly Cloudy
7:53 PM 73.9 °F 53.1 °F 48% 29.87 in 10.0 mi West 4.6 mph - N/A   Clear
8:53 PM 64.9 °F 54.0 °F 68% 29.90 in 10.0 mi West 3.5 mph - N/A   Clear
9:53 PM 66.9 °F 53.1 °F 61% 29.93 in 10.0 mi NW 4.6 mph - N/A   Clear
10:53 PM 62.1 °F 53.1 °F 72% 29.95 in 10.0 mi WNW 4.6 mph - N/A   Clear
11:53 PM 59.0 °F 53.1 °F 81% 29.96 in 10.0 mi Calm Calm - N/A   Clear